Other Public Products
Issued by NWS Grand Forks, ND

Home | Current Version | Previous Version | Graphics & Text | Print | Product List | Glossary On
Versions: 1 2 3 4 5 6 7 8 9 10 11 12 13 14 15 16 17 18 19 20 21 22 23 24 25 26 27 28 29 30 31 32 33 34 35 36 37 38 39 40 41 42 43 44 45 46 47 48 49 50
100
FPUS83 KFGF 160210
OPUFGF
PRAIRIE TO PINES WEATHER ROUNDUP
NATIONAL WEATHER SERVICE EASTERN NORTH DAKOTA/GRAND FORKS ND
800 PM CST FRI DEC 15 2017

 **SATELLITE DATA USED TO AUGMENT SKY COVER AT AUTOMATED STATIONS**
 *****  WEATHER ACROSS EASTERN NORTH DAKOTA  *****

CITY           SKY/WX    TMP DP  RH WIND       PRES   REMARKS
GRAND FORKS    LGT SNOW  23  21  92 E10       29.63F FOG     WCI  12
GRND FORKS AFB LGT SNOW  23  21  93 SE12      29.61F FOG     WCI  12
GRND FORKS NWS   N/A     23 N/A N/A E13         N/A  WCI  11
BUXTON         NOT AVBL
DEVILS LAKE    FLURRIES  27  25  92 SE10      29.55R WCI  17
FARGO          LGT SNOW  29  27  92 SE10      29.60F FOG     WCI  20
WAHPETON ARPT  MOCLDY    30  28  93 SE9       29.62F WCI  22
$$

 *****  WEATHER ACROSS CENTRAL AND WESTERN NORTH DAKOTA  *****

CITY           SKY/WX    TMP DP  RH WIND       PRES   REMARKS
JAMESTOWN      MOCLDY    32  30  92 S7        29.52F
BISMARCK       CLOUDY    39  26  59 W7        29.56S
MINOT          CLOUDY    44  30  57 W15       29.51R
MINOT AFB      MOCLDY    41  30  65 NW15      29.50R
GARRISON         N/A     41  25  53 NW17      29.53R
WILLISTON        N/A    N/A N/A N/A MISG      29.59R
DICKINSON      FAIR      36  22  56 W12       29.57R
HETTINGER      FAIR      35  20  54 NW8       29.62R
$$

 *****  OTHER OBSERVATIONS NORTHEAST NORTH DAKOTA  *****

CITY           SKY/WX    TMP DP  RH WIND       PRES   REMARKS
WALHALLA       LGT SNOW  18  18 100 E12       29.63F WCI   5
LANGDON        LGT SNOW  21  21 100 E14       29.56F WCI   8
CAVALIER       LGT SNOW  18  16  93 E9G20     29.65S VSB 1   WCI   6
GRAFTON        CLOUDY    19  19 100 E14       29.67S FOG     WCI   6
CANDO          LGT SNOW  27  27 100 SE9       29.56R WCI  17
FORT TOTTEN      N/A     30  30  99 SE7       29.95S WCI  23
ROLLA          LGT SNOW  27  27 100 SE6       29.53R WCI  20
RUGBY          CLOUDY    32  30  93 E6        29.51R
 ***** THE ABOVE OBSERVATIONS ARE NON NWS ARE NOT QUALITY
        CONTROLLED AND MAY MIS-REPORT RAIN FOR SNOW...
$$

 *****  OTHER OBSERVATIONS SOUTHEAST NORTH DAKOTA *****

CITY           SKY/WX    TMP DP  RH WIND       PRES   REMARKS
COOPERSTOWN    CLOUDY    27  27 100 SE9       29.55F WCI  17
VALLEY CITY    CLOUDY    28  28 100 SE10      29.56F WCI  19
OAKES            N/A     32  32 100 S6        29.56F
GWINNER          N/A     32  30  93 SE3       29.57F
SHEYENNE NWR     N/A     30  30 100 SE7       29.95S WCI  23
BUFFALO        NOT AVBL
WYNDMERE       NOT AVBL
 ***** THE ABOVE OBSERVATIONS ARE NON NWS ARE NOT QUALITY
       CONTROLLED AND MAY MIS-REPORT RAIN FOR SNOW...
$$

  *****  WEATHER ACROSS NORTHERN MINNESOTA  *****

CITY           SKY/WX    TMP DP  RH WIND       PRES   REMARKS
FLAG ISLAND    CLOUDY     7   1  78 E6        29.75S WCI  -3
WARROAD        CLOUDY    10   7  85 E10       29.73S WCI  -3
ROSEAU         CLOUDY    12   9  85 E9        29.72S HAZE    WCI   0
HALLOCK        LGT SNOW  18  14  86 E15       29.67S WCI   3
THF RVR FALLS  LGT SNOW  16  13  88 E14       29.67S FOG     WCI   2
HALSTAD        NOT AVBL
FOSSTON        LGT SNOW  18  14  86 E8        29.65F WCI   7
BAUDETTE       CLOUDY    10   5  80 E9        29.73R WCI  -3
WASKISH        CLOUDY    12   9  85 E7        29.72S WCI   2
CROOKSTON      LGT SNOW  21  19  93 E9        29.66S WCI  11
$$
  *****  WEATHER ACROSS CENTRAL AND WEST MINNESOTA  *****

CITY           SKY/WX    TMP DP  RH WIND       PRES   REMARKS
BEMIDJI        LGT SNOW  14  11  88 E6        29.68R WCI   5
PARK RAPIDS    LGT SNOW  18  14  84 E5        29.66S FOG     WCI  11
WADENA         LGT SNOW  19  18  93 SE6       29.65F WCI  11
DETROIT LAKES  LGT SNOW  23  23 100 SE9       29.64F WCI  13
MOORHEAD       LGT SNOW  27  25  93 CALM      29.62F
FERGUS FALLS   LGT RAIN  28  28 100 SE9       29.66F WCI  20
ELBOW LAKE     CLOUDY    29  28  98 SE7       29.64F WCI  22
MORRIS MN      CLOUDY    30  28  93 SE8       29.64F WCI  23
STAPLES        LGT SNOW  19  18  93 SE3       29.67F
WHEATON        CLOUDY    30  28  93 SE12      29.64F WCI  21
$$
  *****  WEATHER ELSEWHERE ACROSS MINNESOTA  *****

CITY           SKY/WX    TMP DP  RH WIND       PRES   REMARKS
DULUTH         FLURRIES  12   5  73 E3        29.72F
INTRNTL FALLS  CLOUDY     5   0  79 E5        29.76R WCI  -4
ELY            FAIR      -2  -8  78 CALM      29.74S
CLOQUET        FLURRIES  14   7  73 E3        29.73F
BRAINERD       LGT SNOW  20  17  88 CALM      29.70S FOG
HIBBING        CLOUDY    11   4  73 SE5       29.73S WCI   3
ALEXANDRIA     LGT SNOW  27  25  92 SE9       29.66S FOG     WCI  18
SAINT CLOUD    CLOUDY    23  21  92 SE3       29.71F
MINNEAPOLIS    LGT SNOW  27  25  92 SE7       29.75S FOG     WCI  19
$$

  *****  WEATHER ACROSS SOUTH DAKOTA  *****

CITY           SKY/WX    TMP DP  RH WIND       PRES   REMARKS
SIOUX FALLS    CLOUDY    40  27  59 SW7       29.65F
BROOKINGS        N/A     35  26  69 S9        29.61
WATERTOWN      MOCLDY    33  28  81 S9        29.59S
HURON          FAIR      36  28  73 S5        29.60F
SISSETON         N/A     33  31  92 SE9       29.59F
ABERDEEN       MOCLDY    36  27  69 S8        29.58F
MITCHELL       FAIR      42  29  59 SW8       29.63F
PIERRE         FAIR      43  26  51 W12       29.60F
MOBRIDGE       FAIR      39  25  57 W5        29.55S
RAPID CITY     FAIR      35  16  45 N5        29.67R
$$

  *****  SOME WEATHER IN NEARBY STATES *****

CITY           SKY/WX    TMP DP  RH WIND       PRES   REMARKS
GLASGOW MT     FAIR      36  24  62 NW12      29.66R
GREAT FALLS MT CLOUDY    43  24  47 W10       29.79R
CHEYENNE WY    FAIR      46   4  17 W20       29.86F
SCOTTSBLUFF NE FAIR      49  10  20 W17       29.78F
OMAHA NE       FAIR      42  24  49 S10       29.79F
DES MOINES IA  FAIR      39  23  52 S10       29.82F
DAVENPORT IA   MOCLDY    36  21  54 S12       29.91S
CHICAGO IL     CLOUDY    34  22  61 SW7       29.90S
EAU CLAIRE WI  LGT SNOW  21  17  84 SE5       29.78F FOG     WCI  15
LA CROSSE WI   FLURRIES  32  27  81 SE3       29.80S
$$

  *****  SOME NATIONAL WEATHER *****

CITY           SKY/WX    TMP DP  RH WIND       PRES   REMARKS
LA GUARDIA NY  MOCLDY    27  19  72 W10       29.91S WCI  17
RALEIGH NC     FAIR      32  26  78 CALM      30.06R
ATLANTA GA     MOCLDY    34  25  69 NW9       30.18S
NEW ORLEANS LA CLOUDY    48  36  63 N7        30.25R
OKLAHOMA CITY  FAIR      36  22  56 S10       30.10F
ALBUQUERQUE NM FAIR      37  12  35 S5        30.14S
SALT LAKE CITY CLOUDY    31  27  85 N7        30.06S WCI  24
LOS ANGELES CA FAIR      63  45  51 W7        30.00F
BOISE ID       CLOUDY    28  22  78 N7        30.14F WCI  21
SEATTLE WA     FOG       42  41  96 S6        30.21S VSB 1/2
$$

*** WEATHER ACROSS MANITOBA...SASKATCHEWAN AND ONTARIO ***
                ***ONTARIO***

CITY           SKY/WX    TMP DP  RH WIND       PRES   REMARKS
GERALDTON      CLEAR    -15 -18  84 NW3       29.83R
THUNDER BAY    PTCLDY    -2  -6  84 NW3       29.85R
SIOUX LOOKOUT  FLURRIES  -9 -15  77 NE3       29.82R
TORONTO        MOCLDY    25  18  74 W22       29.73R WCI  10
BIG TROUT LK   FLURRIES  -9 -15  77 NW7       29.90S WCI -24
PICKLE LAKE    CRYSTALS -17 -22  76 NW3       29.85S
DRYDEN         MOCLDY   -11 -15  84 NE9       29.78S WCI -29
KENORA         CLOUDY    -4  -9  77 E9        29.76R WCI -20
$$
                *** MANITOBA***

CITY           SKY/WX    TMP DP  RH WIND       PRES   REMARKS
BRANDON        FLURRIES  16  14  93 E20       29.57R WCI  -1
DAUPHIN        LGT SNOW  12   9  85 SE17G23   29.60S WCI  -5
ISLAND LAKE    NOT AVBL
PILOT MOUND      N/A     19  18  93 E14         N/A  WCI   6
THE PAS        NOT AVBL
THOMPSON       PTCLDY   -17 -22  76 VRB2      29.85S
WINNIPEG       LGT SNOW  12   7  79 E13       29.71R WCI  -3
LYNN LAKE      MOCLDY   -15 -20  76 E8        29.72F WCI -32
CHURCHILL      LGT SNOW -13 -18  77 W9        29.97R VSB 5/8 WCI -31
GILLAM         CLEAR    -22 -27  76 NW2       29.92
$$
                ***SASKATCHEWAN***

CITY           SKY/WX    TMP DP  RH WIND       PRES   REMARKS
ESTEVAN        LGT RAIN  39  32  75 W13       29.51S
KINDERSLEY     PTCLDY    30  25  80 NW10      29.67R WCI  21
LLOYDMINSTER   PTCLDY    34  27  75 W16G24    29.62R WCI  23
PRINCE ALBERT  LGT SNOW  19  18  93 CALM      29.51R
REGINA         CLOUDY    36  32  87 W14       29.53R
YORKTON        LGT SNOW  19  19 100 SE12      29.49R WC



USA.gov is the U.S. government's official web portal to all federal, state and local government web resources and services.